Hourly Data Report for February 13, 2020

All times are specified in Local Standard Time (LST). Add 1 hour to adjust for Daylight Saving Time where and when it is observed.

OTTAWA INTL A
ONTARIO
Current Station Operator: NAVCAN

45°19'00.000" N
75°40'00.000" W
114.90 m
6106001
71628
YOW

Download Data

Hourly Data (February 2020)
Hourly Data Report for February 13, 2020
TIME Temp Definition
°C
Dew Point Definition
°C
Rel Hum Definition
%
Wind Dir Definition
10's deg

Wind Spd Definition
km/h
Visibility Definition
km
Stn Press Definition
kPa
Hmdx Definition


Wind Chill Definition


Weather Definition


00:00 -0.8 -5.1 73 22 8 24.1 99.62   -4 LegendNANA
01:00 -1.4 -5.0 76 21 7 24.1 99.51   -4 Cloudy
02:00 -1.3 -5.0 76 20 7 24.1 99.50   -4 LegendNANA
03:00 -1.5 -5.1 77 19 5 24.1 99.31   -3 LegendNANA
04:00 -1.2 -5.2 75 23 9 16.1 99.24   -4 Snow
05:00 -2.1 -3.8 88 23 10 1.6 99.32   -6 Snow
06:00 -2.5 -3.3 94 22 4 2.0 99.26   -4 Snow
07:00 -2.7 -3.2 96 20 3 3.2 99.16   -4 Snow
08:00 -2.6 -3.1 96 20 6 4.0 99.19   -5 Snow
09:00 -2.5 -3.0 96 26 6 4.8 99.17   -5 Snow
10:00 -5.6 -6.5 93 35 20 4.8 99.22   -12 Snow
11:00 -9.3 -11.6 84 33 31 4.0 99.34   -19 Snow
12:00 -9.9 -12.9 79 34 27 6.4 99.35   -19 Snow
13:00 -10.2 -12.9 81 33 24 2.4 99.30   -19 Snow
14:00 -11.0 -14.1 78 31 32 4.0 99.34   -21 Snow
15:00 -11.5 -15.1 75 32 36 9.7 99.45   -22 Snow
16:00 -12.4 -16.4 73 32 31 12.9 99.55   -23 Snow
17:00 -13.3 -17.2 72 32 33 12.9 99.70   -24 Snow,Blowing Snow
18:00 -13.5 -17.7 71 34 23 16.1 99.83   -23 Snow
19:00 -14.3 -18.7 69 33 32 16.1 99.98   -25 Snow
20:00 -14.2 -19.4 65 33 32 24.1 100.08   -25 Blowing Snow
21:00 -15.2 -21.1 61 34 26 24.1 100.18   -26 LegendNANA
22:00 -16.5 -22.1 62 33 26 24.1 100.34   -27 Mostly Cloudy
23:00 -18.0 -23.5 63 32 32 24.1 100.47   -30 Blowing Snow

Notes on Data Quality.

Legend

  • E = Estimated
  • M = Missing
  • NA = Not Available*
  • [empty] = Indicates an unobserved value
Date modified: